This is the latest recevied weather packets stored in our database for station/object KB1JLI. If no packets are shown the sender has not sent any weather packets the latest 10 day(s).
| Time | Temp. | Humidity | Pressure | Rain* | Wind** | Luminosity | Snow |
|---|---|---|---|---|---|---|---|
| 1777321830 | 18.33° C | 39% | 1024.3 hPa | 0 mm | - | 56 W/m² | - |
| 1777321526 | 18.33° C | 39% | 1024.1 hPa | 0 mm | - | 50 W/m² | - |
| 1777321224 | 18.89° C | 38% | 1024.1 hPa | 0 mm | - | 74 W/m² | - |
| 1777320921 | 18.89° C | 38% | 1024.1 hPa | 0 mm | - | 215 W/m² | - |
| 1777320619 | 18.89° C | 38% | 1024.2 hPa | 0 mm | - | 260 W/m² | - |
| 1777320316 | 18.89° C | 38% | 1024 hPa | 0 mm | - | 406 W/m² | - |
| 1777320012 | 19.44° C | 37% | 1024.2 hPa | 0 mm | - | 391 W/m² | - |
| 1777319709 | 19.44° C | 36% | 1024.2 hPa | 0 mm | - | 439 W/m² | - |
| 1777319406 | 19.44° C | 37% | 1024.2 hPa | 0 mm | - | 456 W/m² | - |
| 1777319103 | 18.89° C | 37% | 1024.1 hPa | 0 mm | - | 468 W/m² | - |
| 1777318800 | 18.33° C | 38% | 1024.3 hPa | 0 mm | - | 479 W/m² | - |
| 1777318496 | 18.89° C | 38% | 1024.1 hPa | 0 mm | - | 490 W/m² | - |
| 1777318194 | 18.89° C | 38% | 1024.5 hPa | 0 mm | - | 502 W/m² | - |
| 1777317890 | 19.44° C | 38% | 1024.3 hPa | 0 mm | - | 511 W/m² | - |
| 1777317587 | 18.89° C | 38% | 1024.4 hPa | 0 mm | - | 523 W/m² | - |
| 1777317285 | 18.89° C | 36% | 1024.5 hPa | 0 mm | - | 532 W/m² | - |
| 1777316979 | 18.89° C | 37% | 1024.6 hPa | 0 mm | - | 543 W/m² | - |
| 1777316677 | 19.44° C | 38% | 1024.7 hPa | 0 mm | - | 552 W/m² | - |
| 1777316373 | 19.44° C | 36% | 1024.6 hPa | 0 mm | - | 562 W/m² | - |
| 1777316071 | 20° C | 35% | 1024.7 hPa | 0 mm | - | 570 W/m² | - |
| 1777315770 | 19.44° C | 36% | 1024.7 hPa | 0 mm | - | 579 W/m² | - |
| 1777315467 | 18.89° C | 37% | 1024.8 hPa | 0 mm | - | 589 W/m² | - |
| 1777315165 | 18.89° C | 37% | 1024.7 hPa | 0 mm | - | 596 W/m² | - |
| 1777314860 | 18.89° C | 37% | 1024.7 hPa | 0 mm | - | 605 W/m² | - |
| 1777314557 | 19.44° C | 36% | 1024.9 hPa | 0 mm | - | 611 W/m² | - |
* Rain latest hour (hover to see other rain measurements)
** Current wind speed in m/s (hover to see current wind gust speed)